BOX563 EDDP-EDDF

Flight info

Callsign BOX563
Flight time 0h 35m
Altitude 22000
Route ORTAG5N ORTAG T177 ODIPI/N0424F210 T157 KERAX KERAX5A
Aircraft B77L/H-SDE1E2E3FGHIJ2J3J4J5M1RWXY/LB1D1

Departure

Time 2026-05-06 15:06
Airport Leipzig/Halle Airport (EDDP)

Arrival

Time 2026-05-06 15:41
Airport Frankfurt Main Airport (EDDF)
Time Latitude Longitude Altitude Speed Heading
2026-05-06 14:42 51.40885 12.24331 439 ft 0 kts 85°
2026-05-06 14:52 51.40885 12.24320 439 ft 2 kts 80°
2026-05-06 14:52 51.40880 12.24293 423 ft 3 kts 57°
2026-05-06 14:53 51.40869 12.24272 423 ft 3 kts 33°
2026-05-06 14:53 51.40852 12.24257 423 ft 3 kts 17°
2026-05-06 14:53 51.40837 12.24250 423 ft 3 kts
2026-05-06 14:53 51.40816 12.24247 427 ft 3 kts
2026-05-06 14:54 51.40796 12.24246 423 ft 3 kts 357°
2026-05-06 14:54 51.40789 12.24247 423 ft 1 kts 356°
2026-05-06 14:54 51.40788 12.24247 423 ft 0 kts 356°
2026-05-06 14:56 51.40790 12.24247 423 ft 2 kts 355°
2026-05-06 14:56 51.40848 12.24241 423 ft 14 kts 356°
2026-05-06 14:56 51.40942 12.24231 427 ft 14 kts 355°
2026-05-06 14:57 51.41005 12.24222 431 ft 4 kts 354°
2026-05-06 14:57 51.41014 12.24220 431 ft 0 kts 354°
2026-05-06 14:57 51.41015 12.24220 431 ft 2 kts 354°
2026-05-06 14:58 51.41053 12.24224 429 ft 9 kts 21°
2026-05-06 14:58 51.41074 12.24268 423 ft 8 kts 67°
2026-05-06 14:58 51.41085 12.24417 435 ft 19 kts 85°
2026-05-06 14:58 51.41097 12.24641 430 ft 23 kts 85°
2026-05-06 14:59 51.41106 12.24861 439 ft 18 kts 85°
2026-05-06 14:59 51.41117 12.25077 433 ft 19 kts 85°
2026-05-06 14:59 51.41129 12.25333 439 ft 11 kts 86°
2026-05-06 14:59 51.41136 12.25496 430 ft 18 kts 86°
2026-05-06 15:00 51.41167 12.25607 426 ft 15 kts 30°
2026-05-06 15:00 51.41267 12.25620 436 ft 9 kts 355°
2026-05-06 15:00 51.41271 12.25619 437 ft 0 kts 355°
2026-05-06 15:05 51.41329 12.25601 427 ft 20 kts 336°
2026-05-06 15:05 51.41385 12.25389 429 ft 35 kts 270°
2026-05-06 15:05 51.41353 12.24683 436 ft 101 kts 265°
2026-05-06 15:05 51.41300 12.23200 429 ft 170 kts 270°
2026-05-06 15:06 51.41284 12.21771 588 ft 194 kts 267°
2026-05-06 15:06 51.41132 12.18956 1676 ft 193 kts 265°
2026-05-06 15:06 51.41023 12.16961 2607 ft 185 kts 265°
2026-05-06 15:06 51.40922 12.14929 3552 ft 181 kts 264°
2026-05-06 15:07 51.40823 12.12936 4321 ft 180 kts 264°
2026-05-06 15:07 51.40723 12.10898 4970 ft 189 kts 264°
2026-05-06 15:07 51.40613 12.08700 5314 ft 209 kts 264°
2026-05-06 15:07 51.40492 12.06260 5638 ft 231 kts 264°
2026-05-06 15:08 51.40362 12.03613 6154 ft 249 kts 264°
2026-05-06 15:08 51.40224 12.00806 6748 ft 262 kts 264°
2026-05-06 15:08 51.40086 11.98002 6721 ft 263 kts 264°
2026-05-06 15:08 51.39941 11.95092 6768 ft 264 kts 264°
2026-05-06 15:09 51.39794 11.92142 6777 ft 267 kts 264°
2026-05-06 15:09 51.39647 11.89174 6780 ft 268 kts 264°
2026-05-06 15:09 51.39550 11.87218 6823 ft 265 kts 264°
2026-05-06 15:09 51.39405 11.84313 6995 ft 263 kts 264°
2026-05-06 15:10 51.39258 11.81380 7266 ft 264 kts 263°
2026-05-06 15:10 51.39060 11.77462 7727 ft 269 kts 263°
2026-05-06 15:10 51.38955 11.75409 7972 ft 277 kts 263°
2026-05-06 15:10 51.38848 11.72302 8315 ft 283 kts 270°
2026-05-06 15:11 51.38766 11.69169 8608 ft 283 kts 251°
2026-05-06 15:11 51.37818 11.66459 8919 ft 280 kts 230°
2026-05-06 15:11 51.36509 11.64032 9327 ft 296 kts 230°
2026-05-06 15:11 51.35144 11.61395 9699 ft 318 kts 231°
2026-05-06 15:12 51.33751 11.58546 10022 ft 329 kts 232°
2026-05-06 15:12 51.32391 11.55619 10301 ft 332 kts 233°
2026-05-06 15:12 51.31061 11.52642 10642 ft 332 kts 234°
2026-05-06 15:12 51.29742 11.49606 11008 ft 333 kts 235°
2026-05-06 15:13 51.28435 11.46542 11395 ft 334 kts 235°
2026-05-06 15:13 51.27132 11.43453 11773 ft 337 kts 236°
2026-05-06 15:13 51.25827 11.40340 12152 ft 339 kts 236°
2026-05-06 15:13 51.24510 11.37188 12554 ft 342 kts 236°
2026-05-06 15:14 51.23190 11.34024 12960 ft 345 kts 236°
2026-05-06 15:14 51.21856 11.30824 13402 ft 347 kts 236°
2026-05-06 15:14 51.20506 11.27590 13802 ft 352 kts 236°
2026-05-06 15:14 51.19141 11.24322 14137 ft 356 kts 236°
2026-05-06 15:15 51.17769 11.21041 14464 ft 356 kts 236°
2026-05-06 15:15 51.16414 11.17802 14821 ft 355 kts 236°
2026-05-06 15:15 51.15029 11.14495 15196 ft 354 kts 236°
2026-05-06 15:15 51.13665 11.11244 15556 ft 354 kts 235°
2026-05-06 15:16 51.12291 11.07972 15928 ft 355 kts 235°
2026-05-06 15:16 51.10937 11.04753 16306 ft 358 kts 235°
2026-05-06 15:16 51.09545 11.01448 16706 ft 360 kts 235°
2026-05-06 15:16 51.08139 10.98114 17043 ft 366 kts 235°
2026-05-06 15:17 51.06705 10.94720 17103 ft 371 kts 235°
2026-05-06 15:17 51.05267 10.91318 17183 ft 369 kts 235°
2026-05-06 15:17 51.03848 10.87966 17215 ft 367 kts 235°
2026-05-06 15:17 51.02417 10.84589 16857 ft 372 kts 235°
2026-05-06 15:18 51.00975 10.81192 16772 ft 367 kts 235°
2026-05-06 15:18 50.99549 10.77835 16734 ft 366 kts 235°
2026-05-06 15:18 50.98130 10.74498 16749 ft 364 kts 235°
2026-05-06 15:18 50.96756 10.71274 16771 ft 368 kts 235°
2026-05-06 15:19 50.95284 10.67825 16782 ft 388 kts 235°
2026-05-06 15:19 50.93733 10.64198 16780 ft 404 kts 235°
2026-05-06 15:19 50.92162 10.60528 16755 ft 408 kts 235°
2026-05-06 15:19 50.90561 10.56789 16757 ft 408 kts 235°
2026-05-06 15:20 50.88969 10.53076 16752 ft 407 kts 235°
2026-05-06 15:20 50.87379 10.49372 16751 ft 407 kts 235°
2026-05-06 15:20 50.85786 10.45668 16757 ft 406 kts 235°
2026-05-06 15:20 50.84205 10.41997 16755 ft 406 kts 235°
2026-05-06 15:21 50.82618 10.38320 16759 ft 407 kts 235°
2026-05-06 15:21 50.81021 10.34622 16757 ft 407 kts 235°
2026-05-06 15:21 50.79414 10.30910 16751 ft 407 kts 235°
2026-05-06 15:21 50.77814 10.27218 16748 ft 408 kts 235°
2026-05-06 15:22 50.76211 10.23522 16746 ft 408 kts 235°
2026-05-06 15:22 50.74659 10.19950 16757 ft 407 kts 234°
2026-05-06 15:22 50.73049 10.16250 16754 ft 408 kts 234°
2026-05-06 15:22 50.71466 10.12616 16755 ft 408 kts 234°
2026-05-06 15:23 50.69853 10.08918 16754 ft 409 kts 234°
2026-05-06 15:23 50.68240 10.05226 16754 ft 408 kts 234°
2026-05-06 15:23 50.66625 10.01535 16758 ft 409 kts 234°
2026-05-06 15:23 50.65002 9.97831 16728 ft 409 kts 234°
2026-05-06 15:24 50.63391 9.94161 16464 ft 410 kts 234°
2026-05-06 15:24 50.61766 9.90461 16180 ft 408 kts 234°
2026-05-06 15:24 50.60179 9.86852 15885 ft 404 kts 234°
2026-05-06 15:24 50.58602 9.83271 15565 ft 387 kts 234°
2026-05-06 15:25 50.57109 9.79886 15225 ft 364 kts 234°
2026-05-06 15:25 50.55700 9.76694 14931 ft 349 kts 234°
2026-05-06 15:25 50.54334 9.73605 14663 ft 351 kts 234°
2026-05-06 15:25 50.52931 9.70437 14428 ft 355 kts 234°
2026-05-06 15:26 50.51524 9.67263 14040 ft 359 kts 236°
2026-05-06 15:26 50.50087 9.64023 13841 ft 360 kts 236°
2026-05-06 15:26 50.48692 9.60883 13790 ft 358 kts 234°
2026-05-06 15:26 50.47355 9.57607 13588 ft 352 kts 245°
2026-05-06 15:27 50.46578 9.53923 13338 ft 349 kts 254°
2026-05-06 15:27 50.45935 9.50227 13129 ft 351 kts 253°
2026-05-06 15:27 50.45272 9.46532 12730 ft 355 kts 253°
2026-05-06 15:27 50.44589 9.42819 12254 ft 351 kts 252°
2026-05-06 15:28 50.43909 9.39185 11780 ft 342 kts 252°
2026-05-06 15:28 50.43251 9.35695 11287 ft 327 kts 252°
2026-05-06 15:28 50.42618 9.32351 10822 ft 311 kts 252°
2026-05-06 15:28 50.42021 9.29219 10362 ft 297 kts 252°
2026-05-06 15:29 50.41441 9.26177 9896 ft 285 kts 252°
2026-05-06 15:29 50.40845 9.23237 9421 ft 275 kts 249°
2026-05-06 15:29 50.40207 9.20502 8921 ft 266 kts 248°
2026-05-06 15:29 50.39571 9.17824 8452 ft 260 kts 248°
2026-05-06 15:30 50.38953 9.15305 7984 ft 254 kts 242°
2026-05-06 15:30 50.37807 9.13283 7308 ft 249 kts 207°
2026-05-06 15:30 50.36217 9.12276 6795 ft 247 kts 202°
2026-05-06 15:30 50.34634 9.11289 6257 ft 243 kts 204°
2026-05-06 15:31 50.33103 9.10250 5633 ft 237 kts 206°
2026-05-06 15:31 50.31621 9.09196 5026 ft 232 kts 206°
2026-05-06 15:31 50.30164 9.08125 4489 ft 233 kts 207°
2026-05-06 15:32 50.27314 9.05978 3974 ft 212 kts 208°
2026-05-06 15:32 50.26121 9.05067 3926 ft 190 kts 208°
2026-05-06 15:32 50.24998 9.04201 3968 ft 179 kts 208°
2026-05-06 15:32 50.23878 9.03333 3972 ft 182 kts 208°
2026-05-06 15:33 50.22732 9.02443 4010 ft 187 kts 208°
2026-05-06 15:33 50.21558 9.01529 3970 ft 186 kts 208°
2026-05-06 15:33 50.20407 9.00635 3973 ft 184 kts 208°
2026-05-06 15:33 50.19293 8.99768 3972 ft 183 kts 208°
2026-05-06 15:34 50.18152 8.98884 3983 ft 184 kts 208°
2026-05-06 15:34 50.16987 8.97980 3996 ft 184 kts 208°
2026-05-06 15:34 50.15847 8.97092 3983 ft 186 kts 210°
2026-05-06 15:34 50.14921 8.95768 3970 ft 183 kts 242°
2026-05-06 15:35 50.14429 8.94083 3984 ft 186 kts 245°
2026-05-06 15:35 50.13912 8.92232 3974 ft 184 kts 247°
2026-05-06 15:35 50.13438 8.90387 3979 ft 184 kts 248°
2026-05-06 15:35 50.12983 8.88537 3990 ft 183 kts 249°
2026-05-06 15:36 50.12534 8.86686 3988 ft 183 kts 248°
2026-05-06 15:36 50.12089 8.84865 3989 ft 182 kts 249°
2026-05-06 15:36 50.11642 8.83006 4002 ft 183 kts 249°
2026-05-06 15:36 50.11199 8.81155 3989 ft 181 kts 249°
2026-05-06 15:37 50.10765 8.79339 3984 ft 180 kts 249°
2026-05-06 15:37 50.10334 8.77529 3983 ft 178 kts 249°
2026-05-06 15:37 50.09907 8.75736 3990 ft 176 kts 249°
2026-05-06 15:37 50.09499 8.74022 3976 ft 174 kts 249°
2026-05-06 15:38 50.09083 8.72269 4001 ft 175 kts 249°
2026-05-06 15:38 50.08653 8.70459 4009 ft 179 kts 249°
2026-05-06 15:38 50.08228 8.68656 3827 ft 177 kts 250°
2026-05-06 15:38 50.07826 8.66857 3391 ft 175 kts 251°
2026-05-06 15:39 50.07438 8.65066 2918 ft 173 kts 251°
2026-05-06 15:39 50.07038 8.63301 2355 ft 174 kts 250°
2026-05-06 15:39 50.06580 8.61599 1866 ft 169 kts 250°
2026-05-06 15:39 50.06144 8.59956 1374 ft 164 kts 250°
2026-05-06 15:40 50.05757 8.58332 1029 ft 153 kts 251°
2026-05-06 15:40 50.05410 8.56812 881 ft 155 kts 252°
2026-05-06 15:40 50.05016 8.55164 736 ft 162 kts 252°
2026-05-06 15:40 50.04627 8.53535 454 ft 161 kts 250°
2026-05-06 15:41 50.04260 8.52006 353 ft 132 kts 250°
2026-05-06 15:41 50.04006 8.50955 327 ft 82 kts 250°
2026-05-06 15:41 50.03873 8.50400 322 ft 39 kts 250°
2026-05-06 15:41 50.03792 8.50055 318 ft 33 kts 250°
2026-05-06 15:42 50.03697 8.49792 318 ft 15 kts 210°
2026-05-06 15:42 50.03578 8.49825 318 ft 22 kts 132°
2026-05-06 15:42 50.03574 8.50067 323 ft 24 kts 70°
2026-05-06 15:42 50.03635 8.50330 327 ft 31 kts 70°
2026-05-06 15:43 50.03705 8.50619 333 ft 28 kts 69°
2026-05-06 15:43 50.03758 8.50848 336 ft 17 kts 79°
2026-05-06 15:43 50.03734 8.51027 351 ft 17 kts 114°
2026-05-06 15:43 50.03681 8.51194 357 ft 17 kts 116°
2026-05-06 15:44 50.03627 8.51365 363 ft 19 kts 116°
2026-05-06 15:44 50.03569 8.51547 365 ft 22 kts 116°
2026-05-06 15:44 50.03513 8.51783 363 ft 25 kts 88°
2026-05-06 15:44 50.03531 8.52053 357 ft 6 kts 83°
2026-05-06 15:45 50.03532 8.52055 357 ft 0 kts 83°
2026-05-06 15:45 50.03532 8.52063 357 ft 1 kts 83°
2026-05-06 15:45 50.03534 8.52092 357 ft 6 kts 83°
2026-05-06 15:45 50.03543 8.52247 351 ft 19 kts 94°
2026-05-06 15:46 50.03489 8.52398 349 ft 7 kts 111°
2026-05-06 15:46 50.03483 8.52502 344 ft 14 kts 90°
2026-05-06 15:46 50.03507 8.52661 352 ft 16 kts 67°
2026-05-06 15:46 50.03548 8.52816 352 ft 15 kts 68°
2026-05-06 15:47 50.03583 8.52975 352 ft 16 kts 85°